User: anonymous   Login
Location: Bathurst
(33.4193°S, 149.5775°E)
Time: 23:14:03
(UTC+10:00)
Language:

XW-2B - Orbit

View from above orbital plane
View from above orbital plane
View from above satellite
View from above satellite

Ground track
Ground track

The orbit data is extracted from the following two-line orbital elements,

1 40911U 15049N   21110.04438685  .00001551  00000-0  82057-4 0  9995
2 40911  97.4858 113.5952 0014983  33.8514  42.5948 15.16851967308634
Epoch (UTC): 20 April 2021 01:03:55
Eccentricity: 0.0014983
inclination: 97.4858°
perigee height: 505 km
apogee height: 525 km
right ascension of ascending node: 113.5952°
argument of perigee: 33.8514°
revolutions per day: 15.16851967
mean anomaly at epoch: 42.5948°
orbit number at epoch: 30863

The dashed part of the orbit path shows where the satellite is in the earth's shadow,  

DLR